Location: �geri
(47.1364°N, 8.5853°E)
Time: 00:13:09
(UTC+00:00)

Daily predictions for brighter satellites

Satellite Brightness Start Highest point End
(mag) Time Altitude Azimuth Time Altitude Azimuth Time Altitude Azimuth
Cosmos 2369 Rocket 4.3 02:52:23 22° E 02:52:23 22° E 02:56:00 10° NE
USA 215 4.3 02:54:51 10° E 02:59:30 37° NE 02:59:30 37° NE
Cosmos 1943 Rocket 4.1 03:12:51 22° NE 03:12:51 22° NE 03:14:50 10° NNE
Tsikada Rocket 4.5 03:31:33 55° NE 03:31:33 55° NE 03:36:43 10° NNE
CENTAUR R/B 2.9 03:44:24 55° NNE 03:44:24 55° NNE 03:50:15 10° NE
NOSS 3-2 (A) 4.1 04:04:16 41° N 04:04:16 41° N 04:09:27 10° NE
Cosmos 1486 Rocket 4.2 04:03:40 58° SSE 04:04:31 69° ESE 04:09:47 10° NNE
Cosmos 1151 Rocket 3.9 04:05:31 46° SE 04:05:31 46° SE 04:08:52 10° SSE
SL-8 R/B 4.2 04:07:03 55° SE 04:07:03 55° SE 04:10:51 10° ESE
DNEPR-1 R/B 3.9 04:11:34 82° ESE 04:11:34 82° ESE 04:17:02 10° SE
NOSS 3-2 (C) 3.4 04:12:49 60° NNW 04:12:49 60° NNW 04:19:01 10° NE
Cosmos 1833 4.3 04:15:45 47° N 04:17:26 74° ENE 04:23:10 10° SSE
Okean 3 Rocket 4.3 04:13:12 10° S 04:17:36 53° E 04:22:02 10° NNE
Cosmos 1766 Rocket 3.9 04:16:24 10° S 04:20:40 63° E 04:24:57 10° NNE
BREEZE-M DEB (TANK) 3.6 04:21:03 48° SW 04:21:23 49° SSW 04:32:53 10° SE
SL-27 R/B 4.2 04:21:23 29° NE 04:21:47 30° ENE 04:24:57 10° SE
Envisat 3.4 04:18:55 10° NNE 04:23:58 63° E 04:29:00 10° S
Cosmos 968 Rocket 4.4 04:27:18 34° N 04:27:18 34° N 04:30:23 10° NNE
Cosmos 1328 Rocket 3.7 04:25:33 49° NNE 04:26:36 69° E 04:30:56 10° SSE
Cosmos 2263 4.1 04:24:35 22° SSW 04:28:26 87° ESE 04:34:14 10° NNE
Cosmos 2297 Rocket 4.4 04:26:18 10° N 04:30:05 18° NE 04:33:51 10° E
Cosmos 2098 Rocket 3.0 04:32:19 43° SSW 04:33:46 81° W 04:39:05 10° N
Cosmos 2369 Rocket 2.1 04:34:16 53° WSW 04:35:20 63° WNW 04:40:56 10° NNE
Meteor 1-10 Rocket 4.4 04:30:34 10° N 04:36:09 72° ENE 04:41:40 10° SSE
Cosmos 2344 3.9 04:34:44 38° WNW 04:36:16 42° NNW 04:44:01 10° NE
Cosmos 2142 Rocket 4.4 04:31:24 10° N 04:37:46 81° W 04:44:10 10° S
SL-19 R/B 4.2 04:33:35 10° S 04:39:06 64° WSW 04:41:27 35° NW
USA 238 DEB 3.9 04:39:34 41° WNW 04:40:43 44° NW 04:47:21 10° NE
USA 238 3.9 04:39:38 41° WNW 04:40:48 45° NW 04:47:27 10° NE
Cosmos 1656 Rocket 3.4 04:37:56 26° SW 04:41:04 76° WNW 04:46:33 10° NNE
COSMO-SKYMED 1 2.4 04:37:18 10° SSE 04:41:39 82° WSW 04:42:51 47° NNW
Cosmos 2279 Rocket 3.8 04:35:57 10° N 04:42:09 79° W 04:48:19 10° S
USA 215 3.3 04:36:56 10° ESE 04:43:28 78° NNE 04:46:51 31° NW
H-2A R/B 4.0 04:40:22 10° N 04:46:53 17° SSW 04:47:51 10° SSW
Meteor 1-31 Rocket 2.9 04:40:46 10° NNE 04:44:40 74° ESE 04:48:35 10° S
BREEZE-M DEB (TANK) 4.5 04:31:10 10° SW 04:45:36 50° SSE 04:49:36 10° E
Helios 1B 4.5 04:45:05 10° S 04:49:23 65° WSW 04:50:20 49° NW
CBERS 1 LM4 rocket 4.4 04:47:58 10° NNE 04:52:52 89° ESE 04:57:56 10° SSW
CZ-4B R/B 4.4 04:51:31 10° E 04:53:07 13° ENE 04:54:44 10° NE
Cosmos 1408 Rocket 3.9 04:48:53 10° S 04:53:09 65° E 04:57:26 10° NNE
CZ-2C R/B 2.6 04:47:49 10° S 04:53:15 67° WSW 04:57:37 16° NNW
Cosmos 1943 Rocket 3.3 04:54:24 25° NNW 04:54:24 25° NNW 04:58:08 10° N
CZ-4B R/B 4.0 04:49:13 10° NNE 04:53:42 86° WNW 04:58:11 10° SSW
Cosmos 1354 Rocket 3.9 04:54:11 10° SSW 04:59:28 84° WNW 05:04:49 10° NNE
Cosmos 1634 Rocket 4.4 04:58:14 25° NW 05:01:04 37° W 05:06:41 10° SSW
Meteor 2-15 4.3 04:57:21 10° NNW 05:03:27 80° W 05:09:29 10° S
Cosmos 1862 4.2 05:07:20 30° NNW 05:07:20 30° NNW 05:09:45 10° N
Cosmos 2227 Rocket 4.2 05:01:50 10° N 05:06:11 22° NE 05:10:31 10° E
Landsat 5 3.7 05:05:08 10° S 05:09:34 56° W 05:12:32 20° NNW
Cosmos 1515 Rocket 3.4 05:06:34 12° NNW 05:10:35 76° W 05:14:54 10° S
SJ 16-02 1.7 05:08:09 10° S 05:12:29 65° ESE 05:16:49 10° NNE
ADEOS 3.6 05:07:44 10° NNE 05:13:00 85° ESE 05:18:14 10° SSW
BREEZE-M DEB (TANK) 3.4 05:16:52 33° WNW 05:18:20 66° N 05:26:46 10° E
Meteor 2-19 Rocket 4.3 05:13:07 10° S 05:19:10 82° W 05:25:16 10° N
NOAA 11 4.1 05:19:04 10° NNE 05:24:35 86° WNW 05:30:05 10° SSW
CZ-4C R/B 3.2 05:22:42 10° S 05:25:40 39° W 05:26:28 32° WNW
Cosmos 1538 Rocket 4.2 05:21:06 10° NNW 05:26:21 75° ENE 05:31:33 10° SSE
COSMOS 2487 2.7 05:23:41 14° NNW 05:26:26 64° ENE 05:29:45 10° SSE
Cosmos 1500 Rocket 3.5 05:26:12 10° S 05:30:40 88° WNW 05:35:10 10° N
CZ-2C R/B 3.0 05:27:15 10° NNE 05:32:09 88° E 05:37:18 10° SSW
SMAP 3.9 05:30:23 10° NNE 05:34:58 53° E 05:39:30 10° S
CENTAUR R/B 3.8 05:31:36 18° WNW 05:35:07 28° NNW 05:41:31 10° NE
Sich 1 4.0 05:32:43 10° SSE 05:36:51 49° E 05:40:59 10° NNE
FALCON 9 DEB 4.2 05:37:32 20° NNW 05:38:40 25° N 05:41:09 10° ENE
CZ-4B R/B 2.4 05:36:30 10° N 05:40:04 79° WNW 05:43:40 10° SSW
H-2A R/B 3.9 05:35:58 10° NNE 05:40:21 32° E 05:44:45 10° SSE
ATLAS 5 CENTAUR R/B 1.2 05:36:44 10° SW 05:40:34 82° NW 05:44:57 10° NE
FALCON 9 DEB 4.0 05:40:01 19° NNW 05:41:17 27° N 05:43:48 10° ENE
FALCON 9 DEB 4.0 05:40:11 19° NNW 05:41:30 28° NNE 05:44:02 10° ENE
Meteor 1-27 Rocket 3.8 05:36:02 10° NNW 05:41:33 56° W 05:47:09 10° S
Cosmos 1805 Rocket 3.8 05:38:28 10° S 05:42:49 74° E 05:47:12 10° NNE
H-2A R/B 2.0 05:39:16 10° SSE 05:43:33 79° WSW 05:47:58 10° NNW
Cosmos 1500 4.2 05:40:59 10° S 05:44:40 49° E 05:48:21 10° NNE
Meteor PRIRODA 3.6 05:41:20 10° N 05:44:55 59° WNW 05:48:29 10° SSW
Cosmos 1777 Rocket 4.0 05:41:51 10° SW 05:47:00 61° WNW 05:52:14 10° NNE
USA 32 4.0 05:43:39 10° N 05:48:54 75° W 05:54:08 10° S
FAST Rocket 4.2 05:47:01 10° SSW 05:49:36 52° WNW 05:52:54 10° N
Lacrosse 4 Rocket 3.6 05:48:02 10° N 05:51:31 22° NE 05:55:01 10° E
Cosmos 1515 3.7 05:50:07 10° NNW 05:53:52 58° W 05:57:36 10° S
Cosmos 1340 Rocket 3.0 05:51:22 10° SSW 05:55:12 48° WNW 05:59:07 10° N
SL-27 R/B 3.9 05:54:53 15° WNW 05:56:37 20° W 05:59:18 10° SSW
Okean O Rocket 4.2 05:54:33 10° NE 05:58:12 25° E 06:01:48 10° SSE
Cosmos 2026 Rocket 4.1 05:52:18 10° S 05:58:39 89° E 06:04:58 10° N
Cosmos 923 Rocket 4.4 05:56:15 10° NNW 06:01:37 68° ENE 06:06:55 10° SSE
Envisat 4.2 05:58:51 10° NNW 06:02:33 21° WNW 06:06:13 10° WSW
Cosmos 2195 Rocket 4.4 05:56:35 10° SSW 06:02:41 74° W 06:08:49 10° N
NOAA 6 4.1 05:58:35 10° NNE 06:03:44 87° ESE 06:08:52 10° SSW
ATLAS 3B R/B 2.6 05:57:32 10° SW 06:04:06 80° NW 06:11:02 10° NE
FALCON 9 DEB 4.0 06:03:14 12° NW 06:05:30 28° NNE 06:08:04 10° ENE
Cosmos 1553 Rocket 4.3 06:02:30 10° N 06:08:36 71° E 06:14:40 10° SSE
Meteor 1-25 Rocket 4.2 06:04:35 10° SSW 06:10:10 67° WNW 06:15:44 10° N
Cosmos 158 Rocket 4.3 06:05:48 10° NNW 06:10:44 48° WSW 06:15:46 10° S
Cosmos 1809 Rocket 4.4 06:07:01 10° SSW 06:13:10 70° WNW 06:19:18 10° N
PSLV R/B 3.9 06:09:39 10° SSE 06:13:43 83° WSW 06:17:51 10° NNW
Cosmos 1939 Rocket 3.0 06:10:04 10° N 06:13:51 46° WNW 06:17:33 10° SW
Cosmos 1666 3.4 06:10:08 10° S 06:13:51 59° E 06:17:35 10° NNE
Cosmos 2297 Rocket 2.4 06:09:24 10° NNW 06:15:06 78° ENE 06:20:46 10° SSE
FALCON 9 DEB 4.2 06:13:42 10° WNW 06:16:46 31° N 06:19:51 10° ENE
Cosmos 1174 4.0 06:14:56 10° WSW 06:17:36 28° NW 06:20:27 10° NNE
EO 1 Delta rocket 4.3 06:11:33 10° N 06:18:02 72° WNW 06:23:09 10° SSW
Cosmos 2369 Rocket 3.7 06:17:23 10° WNW 06:20:33 15° NW 06:23:45 10° N
Cosmos 1607 4.1 06:18:10 10° NW 06:24:20 62° WSW 06:30:21 10° SSE
CZ-4B R/B 1.8 06:21:35 10° S 06:24:46 43° W 06:27:55 10° NNW
Cosmos 1633 Rocket 3.4 06:20:30 10° S 06:24:49 73° E 06:29:10 10° NNE
USA 215 4.1 06:20:53 10° SSE 06:26:50 37° SW 06:32:48 10° WNW
